EW3608 Weather Reports


Display with metric or nautical units.
time (UTC)temp
F
wind
direction
speed
MPH
gust
MPH
rain 1hr
in
rain 24hr
in
rain mn
in
humidity
%
barometer
mb
20260504014525 67 246 1.0 8.0 0.00 0.00 0.00 22 1010.8
20260504014009 67 211 2.0 8.0 0.00 0.00 0.00 21 1010.7
20260504013507 67 280 1.0 6.0 0.00 0.00 0.00 22 1010.7
20260504013028 68 236 1.0 6.0 0.00 0.00 0.00 22 1010.7
20260504012506 68 248 2.0 7.0 0.00 0.00 0.00 22 1010.7
20260504012006 68 209 2.0 8.0 0.00 0.00 0.00 22 1010.7
20260504011518 68 261 2.0 8.0 0.00 0.00 0.00 22 1010.8
20260504011007 68 283 3.0 8.0 0.00 0.00 0.00 22 1010.8
20260504010508 69 212 1.0 11.0 0.00 0.00 0.00 22 1010.8
20260504010024 69 232 2.0 11.0 0.00 0.00 0.00 21 1010.8
20260504005510 69 287 3.0 10.0 0.00 0.00 0.00 21 1010.9
20260504005013 69 326 2.0 9.0 0.00 0.00 0.00 22 1011.1
20260504004511 69 283 3.0 9.0 0.00 0.00 0.00 22 1011.2
20260504004006 69 226 2.0 8.0 0.00 0.00 0.00 21 1011.2
20260504003511 69 275 2.0 3.0 0.00 0.00 0.00 22 1011.4
20260504003023 69 271 1.0 3.0 0.00 0.00 0.00 22 1011.5
20260504002510 69 278 1.0 3.0 0.00 0.00 0.00 22 1011.5
20260504002012 69 352 0.0 4.0 0.00 0.00 0.00 22 1011.6
20260504001508 69 337 1.0 5.0 0.00 0.00 0.00 22 1011.7
20260504001003 69 333 2.0 5.0 0.00 0.00 0.00 22 1011.6
20260504000510 69 352 1.0 3.0 0.00 0.00 0.00 22 1011.7
20260504000016 69 337 1.0 6.0 0.00 0.00 0.00 22 1011.6
20260503235507 69 34 3.0 6.0 0.00 0.00 0.00 22 1011.6
20260503235007 70 333 2.0 5.0 0.00 0.00 0.00 22 1011.7
20260503234528 70 168 1.0 2.0 0.00 0.00 0.00 21 1011.9
20260503234007 69 267 1.0 5.0 0.00 0.00 0.00 22 1011.9
20260503233503 69 226 1.0 6.0 0.00 0.00 0.00 22 1011.9
20260503233011 70 225 1.0 6.0 0.00 0.00 0.00 22 1012.0
20260503232506 70 273 1.0 4.0 0.00 0.00 0.00 21 1011.9
20260503232007 70 333 2.0 5.0 0.00 0.00 0.00 21 1011.5
20260503231522 70 336 1.0 5.0 0.00 0.00 0.00 21 1011.4
20260503231009 70 167 0.0 4.0 0.00 0.00 0.00 22 1011.5
20260503230510 70 190 1.0 7.0 0.00 0.00 0.00 22 1011.5
20260503230028 70 109 2.0 12.0 0.00 0.00 0.00 22 1011.5
20260503225503 70 172 2.0 13.0 0.00 0.00 0.00 22 1011.7
20260503225007 69 234 5.0 18.0 0.00 0.00 0.00 24 1011.7
20260503224515 69 89 7.0 18.0 0.00 0.00 0.00 22 1011.8
20260503224007 70 86 3.0 13.0 0.00 0.00 0.00 22 1011.9
20260503223509 70 255 5.0 15.0 0.00 0.00 0.00 20 1011.9
20260503223027 70 343 7.0 15.0 0.00 0.00 0.00 20 1011.6
20260503222507 71 327 3.0 11.0 0.00 0.00 0.00 19 1011.6
20260503222011 71 301 2.0 6.0 0.00 0.00 0.00 18 1011.7
20260503221507 71 339 1.0 10.0 0.00 0.00 0.00 18 1011.6
20260503221006 71 349 2.0 10.0 0.00 0.00 0.00 18 1011.7
20260503220507 71 5 2.0 9.0 0.00 0.00 0.00 18 1011.7
20260503220018 71 314 3.0 9.0 0.00 0.00 0.00 17 1011.7
20260503215510 71 349 3.0 10.0 0.00 0.00 0.00 17 1011.7
20260503215011 71 274 2.0 16.0 0.00 0.00 0.00 17 1011.8
20260503214525 72 327 10.0 16.0 0.00 0.00 0.00 17 1011.9
20260503214007 72 306 4.0 9.0 0.00 0.00 0.00 17 1012.0
20260503213506 73 316 3.0 9.0 0.00 0.00 0.00 16 1012.0
20260503213012 73 282 2.0 13.0 0.00 0.00 0.00 16 1011.9
20260503212507 73 269 6.0 12.0 0.00 0.00 0.00 16 1011.9
20260503212012 73 209 5.0 13.0 0.00 0.00 0.00 17 1011.9
20260503211523 73 244 7.0 13.0 0.00 0.00 0.00 16 1011.9
20260503211004 73 209 5.0 10.0 0.00 0.00 0.00 16 1012.1
20260503210505 73 196 3.0 11.0 0.00 0.00 0.00 16 1012.1
20260503210015 74 214 5.0 11.0 0.00 0.00 0.00 15 1012.2
20260503205504 75 240 2.0 9.0 0.00 0.00 0.00 16 1012.1
20260503205007 75 254 1.0 9.0 0.00 0.00 0.00 13 1012.2
20260503204517 75 205 4.0 9.0 0.00 0.00 0.00 13 1012.2
20260503204011 75 301 3.0 9.0 0.00 0.00 0.00 13 1012.4
20260503203511 74 187 4.0 9.0 0.00 0.00 0.00 14 1012.5
20260503203011 74 248 3.0 20.0 0.00 0.00 0.00 14 1012.7
20260503202504 75 333 5.0 20.0 0.00 0.00 0.00 14 1012.8
20260503202004 75 194 8.0 19.0 0.00 0.00 0.00 14 1011.6
20260503201512 75 263 6.0 18.0 0.00 0.00 0.00 14 1012.9
20260503201007 73 280 1.0 6.0 0.00 0.00 0.00 15 1012.9
20260503200510 73 349 3.0 6.0 0.00 0.00 0.00 15 1012.9
20260503200022 73 323 2.0 11.0 0.00 0.00 0.00 15 1012.9
20260503195510 72 248 1.0 11.0 0.00 0.00 0.00 15 1013.0
20260503195005 72 306 4.0 10.0 0.00 0.00 0.00 15 1013.0
20260503194509 73 341 2.0 14.0 0.00 0.00 0.00 15 1013.2
20260503194005 73 9 2.0 14.0 0.00 0.00 0.00 15 1013.1
20260503193506 73 341 3.0 10.0 0.00 0.00 0.00 15 1013.3
20260503193015 73 352 4.0 9.0 0.00 0.00 0.00 15 1013.3
20260503192507 73 303 4.0 8.0 0.00 0.00 0.00 15 1013.4
20260503192008 73 263 4.0 8.0 0.00 0.00 0.00 14 1013.6
20260503191526 74 323 2.0 9.0 0.00 0.00 0.00 14 1013.6
20260503191006 74 9 2.0 10.0 0.00 0.00 0.00 14 1013.7
20260503190505 74 187 2.0 10.0 0.00 0.00 0.00 14 1013.7
20260503190007 74 342 2.0 13.0 0.00 0.00 0.00 15 1013.9
20260503185506 73 338 3.0 13.0 0.00 0.00 0.00 14 1013.9
20260503185008 73 322 5.0 13.0 0.00 0.00 0.00 15 1014.0
20260503184527 73 217 2.0 11.0 0.00 0.00 0.00 15 1014.1
20260503184013 73 274 2.0 11.0 0.00 0.00 0.00 15 1014.2
20260503183513 73 271 2.0 8.0 0.00 0.00 0.00 15 1014.4
20260503183004 73 330 1.0 10.0 0.00 0.00 0.00 15 1014.5
20260503182507 72 290 2.0 10.0 0.00 0.00 0.00 14 1014.6
20260503182010 72 329 4.0 14.0 0.00 0.00 0.00 15 1014.7
20260503181513 72 360 3.0 14.0 0.00 0.00 0.00 15 1014.8
20260503181008 72 304 2.0 11.0 0.00 0.00 0.00 15 1014.8
20260503180508 72 266 2.0 11.0 0.00 0.00 0.00 15 1015.0
20260503180030 72 225 2.0 14.0 0.00 0.00 0.00 15 1015.1
20260503175507 72 313 1.0 15.0 0.00 0.00 0.00 15 1015.2
20260503175011 72 352 3.0 15.0 0.00 0.00 0.00 15 1015.2
20260503174538 72 288 2.0 12.0 0.00 0.00 0.00 15 1015.4
20260503174010 72 352 3.0 12.0 0.00 0.00 0.00 16 1015.4
20260503173507 70 42 1.0 10.0 0.00 0.00 0.00 16 1015.5
20260503173018 70 334 3.0 11.0 0.00 0.00 0.00 16 1015.6
20260503172508 69 279 2.0 11.0 0.00 0.00 0.00 16 1015.7
20260503172012 69 344 4.0 11.0 0.00 0.00 0.00 17 1015.8
20260503171532 69 296 3.0 8.0 0.00 0.00 0.00 17 1015.8
20260503171013 69 247 1.0 8.0 0.00 0.00 0.00 17 1015.9
20260503170514 69 265 3.0 12.0 0.00 0.00 0.00 17 1015.9
20260503151003 64 338 2.0 9.0 0.00 0.00 0.00 22 1016.3
20260503150506 64 262 2.0 9.0 0.00 0.00 0.00 22 1016.4
20260503131006 59 321 2.0 14.0 0.00 0.00 0.00 24 1016.2
20260503130511 59 49 3.0 14.0 0.00 0.00 0.00 24 1016.1
20260503110514 49 118 0.0 2.0 0.00 0.00 0.00 45 1016.0
20260503081506 46 161 1.0 6.0 0.00 0.00 0.00 41 1016.4
20260503081004 46 187 1.0 5.0 0.00 0.00 0.00 41 1016.5
20260503080504 45 194 1.0 4.0 0.00 0.00 0.00 40 1016.5
20260503072504 44 128 0.0 2.0 0.00 0.00 0.00 40 1016.9
20260503072004 44 136 0.0 2.0 0.00 0.00 0.00 39 1017.0
20260503071522 44 140 0.0 2.0 0.00 0.00 0.00 39 1016.9
20260503071008 44 140 0.0 3.0 0.00 0.00 0.00 37 1016.9
20260503070511 44 138 0.0 3.0 0.00 0.00 0.00 37 1017.0
20260503055006 49 180 0.0 6.0 0.00 0.00 0.00 31 1017.3
20260503054533 49 195 0.0 6.0 0.00 0.00 0.00 29 1017.3
20260503054008 49 218 1.0 4.0 0.00 0.00 0.00 29 1017.2
20260503053510 48 231 1.0 8.0 0.00 0.00 0.00 29 1017.1
20260503053007 48 250 1.0 7.0 0.00 0.00 0.00 31 1017.1
20260503052503 48 199 0.0 2.0 0.00 0.00 0.00 32 1017.1
20260503052009 48 184 0.0 2.0 0.00 0.00 0.00 31 1017.1
20260503051529 48 229 0.0 2.0 0.00 0.00 0.00 30 1017.1
20260503051007 49 229 0.0 2.0 0.00 0.00 0.00 30 1017.2
20260503050508 49 180 0.0 2.0 0.00 0.00 0.00 30 1017.2
20260503050026 50 194 0.0 2.0 0.00 0.00 0.00 29 1017.2
20260503045508 51 194 0.0 2.0 0.00 0.00 0.00 28 1017.2
20260503045005 52 194 0.0 2.0 0.00 0.00 0.00 28 1017.3
20260503044514 52 194 0.0 4.0 0.00 0.00 0.00 28 1017.3
20260503044007 53 223 0.0 4.0 0.00 0.00 0.00 26 1017.3
20260503043510 52 189 0.0 4.0 0.00 0.00 0.00 25 1017.4
20260503043025 51 258 1.0 4.0 0.00 0.00 0.00 25 1017.4
20260503042508 51 258 1.0 2.0 0.00 0.00 0.00 26 1017.4
20260503042014 51 235 0.0 2.0 0.00 0.00 0.00 26 1017.5
20260503041533 51 188 1.0 2.0 0.00 0.00 0.00 29 1017.5
20260503041003 51 271 0.0 2.0 0.00 0.00 0.00 27 1017.4
20260503040503 51 266 1.0 2.0 0.00 0.00 0.00 27 1017.3
20260503040018 52 161 0.0 2.0 0.00 0.00 0.00 28 1017.3
20260503035508 52 171 0.0 2.0 0.00 0.00 0.00 26 1017.3
20260503035008 53 171 0.0 2.0 0.00 0.00 0.00 26 1017.3
20260503034526 53 171 0.0 2.0 0.00 0.00 0.00 26 1017.3
20260503034008 54 171 0.0 3.0 0.00 0.00 0.00 26 1017.3
20260503033510 54 221 0.0 5.0 0.00 0.00 0.00 23 1017.3
20260503033011 53 212 1.0 5.0 0.00 0.00 0.00 25 1017.3
20260503032507 53 237 0.0 3.0 0.00 0.00 0.00 26 1017.4
20260503032009 53 242 1.0 2.0 0.00 0.00 0.00 28 1017.4
20260503031525 54 217 0.0 2.0 0.00 0.00 0.00 28 1017.4
20260503031010 55 217 0.0 2.0 0.00 0.00 0.00 26 1017.4
20260503030511 55 217 0.0 2.0 0.00 0.00 0.00 25 1017.4
20260503030034 56 218 0.0 2.0 0.00 0.00 0.00 24 1017.4
20260503025510 56 218 0.0 2.0 0.00 0.00 0.00 26 1017.3
20260503025003 57 218 0.0 2.0 0.00 0.00 0.00 25 1017.3
20260503024519 57 219 0.0 2.0 0.00 0.00 0.00 22 1017.2
20260503024010 58 217 0.0 2.0 0.00 0.00 0.00 23 1017.1
20260503023510 58 217 0.0 2.0 0.00 0.00 0.00 22 1017.1
20260503023024 59 217 0.0 2.0 0.00 0.00 0.00 21 1017.1
20260503022510 60 216 0.0 2.0 0.00 0.00 0.00 20 1017.0
20260503022013 61 213 0.0 2.0 0.00 0.00 0.00 19 1017.0
20260503021534 62 204 0.0 2.0 0.00 0.00 0.00 18 1016.9
20260503021007 63 67 0.0 2.0 0.00 0.00 0.00 16 1016.8
20260503020506 64 67 0.0 0.0 0.00 0.00 0.00 15 1016.8
20260503020022 65 67 0.0 0.0 0.00 0.00 0.00 14 1016.8
20260503015509 66 67 0.0 2.0 0.00 0.00 0.00 14 1016.7
20260503015008 66 67 0.0 2.0 0.00 0.00 0.00 13 1016.7